Вернуться в каталог

CZ-6A DEB

АктивенPO
NORAD 54354·DEBRIS·🇨🇳 China

Запущен Nov 11, 2022 с Taiyuan Satellite Launch Center

Loading…

Ближайшие Пролёты (ближайшие 24 часа)

TLE

СвежийSource: Space-Track

Эпоха: Sep 14, 2026, 11:47 UTC

1 54354U 22151CZ  26257.49115781  .00009366  00000-0  11426-2 0  9990
2 54354  98.7152 354.4053 0094129   0.9086 359.2277 14.80445782203527

Отслеживайте CZ-6A DEB в реальном времени с AllMySat

Download on the App Store